[[{"header":{"parameterUnit":"m.s-1","parameterCategory":1,"la1":30.2991,"la2":30.254,"lo1":-89.0895,"lo2":-89.0444,"dy":0.0017,"dx":0.0017,"nx":28,"ny":28,"refTime":"2024-12-09T03:00:00:Z","depth":0,"parameterNumber":2,"parameterNumberName":"U-component_of_WINDS"},"data":[0,0,0,0,0,0,0,0,0,0,0,0,0,0,0,0,0,0,0,0,0,0,0,0,0,0,0,0,0,0,0,0,0,0,0,0,0,0,0,0,0,0,0,0,0,0,0,0,0,0,0,0,0,0,0,0,0,0,0.1521,0.1521,0,0.148,0.148,0.1479,0.146,0.146,0.146,0.146,0.1413,0.1412,0.1411,0,0,0,0,0,0,0,0,0,0,0,0,0,0.158,0.1579,0.1521,0.1521,0.152,0.148,0.148,0.1479,0.146,0.146,0.146,0.146,0.1413,0.1412,0.141,0,0,0,0,0,0,0,0,0,0,0,0,0,0.1548,0.1579,0.1522,0.1506,0.1504,0.148,0.148,0.1479,0.146,0.146,0.146,0.146,0.1414,0.1412,0.141,0.1397,0,0,0.1404,0.1404,0,0,0,0,0,0,0,0,0.155,0.1546,0.1509,0.1507,0.1505,0.1475,0.1483,0.1451,0.146,0.1476,0.146,0.146,0.1433,0.143,0.1422,0.1395,0.1393,0.1404,0.1403,0.1402,0.1402,0,0,0,0,0,0,0,0.1552,0.1548,0.1505,0.1508,0.1506,0.15,0.1496,0.1477,0.1455,0.1475,0.1474,0.1469,0.1432,0.1424,0.1421,0.1392,0.1404,0.1403,0.1401,0.1401,0.1354,0.1354,0,0,0,0,0,0,0.1558,0.155,0.1506,0.1504,0.1528,0.1499,0.1494,0.1485,0.1455,0.1451,0.1469,0.1468,0.1427,0.1423,0.1419,0.1403,0.1402,0.14,0.1399,0.1354,0.1354,0.1354,0,0,0,0,0,0,0.1559,0.1554,0.1508,0.1526,0.152,0.1498,0.1488,0.1484,0.1475,0.1451,0.1446,0.1465,0.1427,0.1422,0.1403,0.1401,0.14,0.1398,0.1354,0.1354,0.1354,0.137,0,0,0,0,0,0,0.1561,0.1555,0.155,0.1527,0.1519,0.1494,0.1487,0.1483,0.1473,0.1471,0.1445,0.1441,0.1427,0.1406,0.1402,0.1398,0.1396,0.1354,0.1354,0.1354,0.1369,0.137,0.1371,0,0,0,0,0,0.1563,0.1555,0.155,0.1545,0.1513,0.1494,0.149,0.1474,0.1472,0.1467,0.1452,0.1442,0.1402,0.1405,0.1399,0.1395,0.1354,0.1354,0.1354,0.1369,0.137,0.1371,0,0,0,0,0,0,0.1577,0.1552,0.1546,0.153,0.1515,0.1491,0.1484,0.1476,0.1459,0.1459,0.1439,0.1433,0.1417,0.1404,0.1407,0.1382,0.1377,0.1376,0.1391,0.1391,0.1392,0.1396,0.1395,0,0,0,0,0,0.1579,0.1566,0.1544,0.1533,0.1525,0.1506,0.1497,0.1487,0.1469,0.1462,0.1445,0.1428,0.1411,0.14,0.1384,0.1368,0.1362,0.1362,0.1363,0.1364,0.1363,0.1354,0.1354,0.1353,0.1353,0.1353,0,0,0.1581,0.1566,0.1559,0.1535,0.1522,0.1509,0.1501,0.1487,0.1477,0.1459,0.1442,0.1429,0.1408,0.1391,0.1383,0.138,0.1362,0.1363,0.1364,0.1363,0.1354,0.1354,0.1354,0.1353,0.1353,0.1353,0,0,0.1579,0.1567,0.1556,0.1544,0.1524,0.1512,0.151,0.1487,0.1479,0.1461,0.1449,0.1435,0.1407,0.1393,0.1382,0.1377,0.1367,0.1372,0.1376,0.1367,0.1367,0.1367,0.1366,0.1366,0.1371,0.1371,0.1371,0,0.1585,0.1566,0.1551,0.1539,0.1529,0.1515,0.1504,0.1492,0.1467,0.146,0.1458,0.1423,0.1408,0.1388,0.1387,0.1379,0.1375,0.1375,0.1369,0.1369,0.1368,0.1367,0.1366,0.1372,0.1372,0.1372,0.1371,0,0.1573,0.156,0.1554,0.1533,0.1522,0.151,0.1494,0.1484,0.1475,0.1463,0.1445,0.1427,0.1407,0.1401,0.1391,0.138,0.1379,0.1373,0.1368,0.1369,0.1368,0.1367,0.1373,0.1372,0.1372,0.1372,0,0,0.1578,0.1551,0.1549,0.154,0.1518,0.1508,0.1495,0.1477,0.147,0.1454,0.1443,0.142,0.1415,0.1402,0.1391,0.1384,0.1381,0.1378,0.1378,0.138,0.1368,0.1373,0.1373,0.1375,0.1375,0.1375,0.137,0,0.1574,0.1553,0.154,0.1523,0.1511,0.1498,0.1488,0.1473,0.1461,0.1448,0.1435,0.142,0.1414,0.1406,0.1399,0.1383,0.1379,0.1383,0.1364,0.1363,0.137,0.1372,0.1377,0.1374,0.137,0.1369,0.1369,0,0.1565,0.1552,0.1535,0.1516,0.1511,0.1501,0.1485,0.1473,0.1456,0.1448,0.1435,0.1424,0.141,0.1407,0.1386,0.139,0.1381,0.1373,0.1372,0.137,0.1367,0.137,0.1372,0.1372,0.1368,0.1368,0.1368,0,0.1572,0.1549,0.1536,0.1529,0.1506,0.15,0.149,0.1473,0.1464,0.1449,0.1442,0.1425,0.1416,0.1402,0.1386,0.1386,0.1368,0.1363,0.1361,0.1361,0.1357,0.1358,0.1359,0.1351,0.1351,0.1351,0.1351,0,0.1568,0.1558,0.1539,0.1531,0.152,0.1505,0.1494,0.1482,0.1468,0.1457,0.1444,0.1434,0.1414,0.1401,0.1388,0.1374,0.1369,0.1362,0.1359,0.1364,0.1365,0.1357,0.1357,0.1351,0.1351,0.1351,0.1351,0,0.1573,0.1559,0.1545,0.1526,0.1521,0.1513,0.1496,0.1487,0.1476,0.1462,0.1458,0.1439,0.1424,0.1407,0.1385,0.1377,0.1363,0.1358,0.1369,0.1367,0.1366,0.1366,0.1362,0.1361,0.1355,0.1355,0.1355,0,0.1571,0.1564,0.1545,0.1537,0.1529,0.1516,0.1508,0.1493,0.1483,0.1464,0.1458,0.1442,0.1428,0.1404,0.1387,0.1371,0.1366,0.1365,0.1363,0.1368,0.1366,0.1367,0.1366,0.1366,0.1366,0.1366,0.1366,0,0.1571,0.1565,0.1553,0.154,0.153,0.1518,0.1505,0.1499,0.1482,0.1472,0.1457,0.1447,0.1426,0.141,0.1391,0.138,0.137,0.1368,0.1366,0.1371,0.1378,0.1374,0.1372,0.1368,0.1367,0.1367,0.1367,0.1367,0.1573,0.1566,0.1552,0.1539,0.1529,0.1518,0.1509,0.1497,0.1485,0.1468,0.146,0.1445,0.1428,0.1403,0.1392,0.138,0.1376,0.1374,0.1374,0.1373,0.1375,0.138,0.1376,0.1376,0.1376,0.1376,0.1376,0,0.1572,0.1563,0.1551,0.1535,0.1525,0.1519,0.1505,0.1497,0.1485,0.1471,0.1459,0.1442,0.1426,0.141,0.1393,0.1386,0.1382,0.1383,0.1383,0.1381,0.1378,0.1382,0.1387,0.1387,0.1387,0.1387,0.1387,0.1387,0.157,0.1559,0.1552,0.1535,0.1525,0.1512,0.1505,0.1494,0.1483,0.1466,0.1454,0.1444,0.1429,0.1411,0.1397,0.1392,0.1387,0.1389,0.1383,0.1381,0.1381,0.138,0.1383,0.1388,0.1388,0.1387,0.1387,0.1387]},{"header":{"parameterUnit":"m.s-1","parameterCategory":1,"la1":30.2991,"la2":30.254,"lo1":-89.0895,"lo2":-89.0444,"dy":0.0017,"dx":0.0017,"nx":28,"ny":28,"refTime":"2024-12-09T03:00:00:Z","depth":0,"parameterNumber":3,"parameterNumberName":"V-component_of_WINDS"},"data":[0,0,0,0,0,0,0,0,0,0,0,0,0,0,0,0,0,0,0,0,0,0,0,0,0,0,0,0,0,0,0,0,0,0,0,0,0,0,0,0,0,0,0,0,0,0,0,0,0,0,0,0,0,0,0,0,0,0,3.0335,3.0335,0,3.0338,3.0338,3.0338,3.0299,3.0298,3.0297,3.0296,3.0298,3.0299,3.03,0,0,0,0,0,0,0,0,0,0,0,0,0,3.0296,3.0297,3.0335,3.0335,3.0335,3.0338,3.0338,3.0338,3.0299,3.0298,3.0297,3.0296,3.0298,3.0299,3.03,0,0,0,0,0,0,0,0,0,0,0,0,0,3.0307,3.0297,3.0335,3.0316,3.0314,3.0337,3.0338,3.0338,3.03,3.0298,3.0296,3.0295,3.0297,3.0299,3.03,3.0341,0,0,3.0305,3.0306,0,0,0,0,0,0,0,0,3.0307,3.0309,3.0319,3.0317,3.0316,3.0316,3.0325,3.0339,3.03,3.0305,3.0296,3.0294,3.0305,3.0306,3.031,3.0341,3.0341,3.0305,3.0306,3.0307,3.0307,0,0,0,0,0,0,0,3.0306,3.0309,3.0336,3.0319,3.0317,3.0308,3.0307,3.0327,3.0314,3.0305,3.0302,3.0303,3.0304,3.0309,3.031,3.0341,3.0305,3.0306,3.0307,3.0308,3.0409,3.041,0,0,0,0,0,0,3.0308,3.0308,3.0336,3.0336,3.0307,3.031,3.0309,3.0318,3.0314,3.0311,3.0304,3.0301,3.0307,3.0308,3.031,3.0359,3.0307,3.0308,3.0309,3.0407,3.0409,3.0411,0,0,0,0,0,0,3.0307,3.0311,3.0336,3.0321,3.0324,3.0312,3.0322,3.0319,3.0323,3.0313,3.0311,3.0311,3.0306,3.0307,3.0334,3.0359,3.0309,3.031,3.0405,3.0408,3.041,3.0458,0,0,0,0,0,0,3.0306,3.0311,3.0326,3.0322,3.0325,3.036,3.0323,3.032,3.0326,3.0322,3.0319,3.0317,3.0304,3.0332,3.0336,3.036,3.0311,3.0403,3.0406,3.0409,3.0454,3.0462,3.0469,0,0,0,0,0,3.0305,3.0339,3.0327,3.0331,3.0344,3.0362,3.0363,3.0348,3.0328,3.0344,3.0338,3.0317,3.0355,3.0335,3.0339,3.0364,3.0401,3.0405,3.0409,3.0451,3.046,3.0468,0,0,0,0,0,0,3.0345,3.0338,3.0325,3.0358,3.0361,3.0355,3.0374,3.0358,3.0366,3.0362,3.0343,3.0343,3.0373,3.0371,3.0349,3.0405,3.0375,3.0379,3.0405,3.0414,3.0421,3.0422,3.0313,0,0,0,0,0,3.0358,3.0373,3.0366,3.0396,3.0398,3.0386,3.0393,3.0382,3.0384,3.0385,3.038,3.0383,3.0396,3.0404,3.0415,3.0453,3.0453,3.0472,3.048,3.0486,3.0491,3.0513,3.0522,3.0424,3.0424,3.0424,0,0,3.0384,3.0382,3.0393,3.0404,3.0405,3.0422,3.0387,3.0406,3.0419,3.0387,3.0413,3.041,3.0412,3.0445,3.0459,3.0444,3.0518,3.0491,3.0495,3.0497,3.0518,3.0527,3.0536,3.0427,3.0426,3.0426,0,0,3.0442,3.0441,3.0467,3.0469,3.0471,3.0463,3.047,3.0467,3.0464,3.049,3.0467,3.0482,3.0503,3.0506,3.0511,3.0571,3.0554,3.0575,3.0613,3.0635,3.0643,3.065,3.0674,3.0682,3.0579,3.058,3.058,0,3.0474,3.0499,3.0482,3.0504,3.051,3.0483,3.051,3.0512,3.0518,3.0523,3.0506,3.0534,3.0533,3.0568,3.0583,3.0586,3.0594,3.0576,3.0643,3.065,3.0656,3.0679,3.0688,3.0582,3.0582,3.0582,3.0581,0,3.054,3.0558,3.0579,3.0587,3.0595,3.0619,3.0606,3.0617,3.0604,3.0599,3.0626,3.0624,3.0635,3.0642,3.063,3.0676,3.0667,3.0647,3.0616,3.0669,3.069,3.0698,3.0586,3.0585,3.0585,3.0584,0,0,3.0623,3.0622,3.063,3.0635,3.0636,3.0649,3.0672,3.0684,3.0695,3.0699,3.072,3.0739,3.0721,3.0726,3.0714,3.0733,3.0784,3.0711,3.0711,3.0727,3.0838,3.0855,3.0865,3.0772,3.0773,3.0775,3.0839,0,3.0681,3.0721,3.0708,3.0749,3.0767,3.0742,3.0762,3.0765,3.0761,3.0775,3.0769,3.0785,3.0758,3.0762,3.0779,3.0774,3.0807,3.0769,3.0792,3.0793,3.0795,3.0876,3.0893,3.0954,3.0847,3.0848,3.0849,0,3.0754,3.0763,3.0807,3.0808,3.0814,3.0833,3.0844,3.0857,3.0861,3.0856,3.0863,3.0847,3.0871,3.0839,3.0872,3.0847,3.0856,3.0855,3.0857,3.086,3.0826,3.0884,3.0973,3.0983,3.0861,3.086,3.0859,0,3.0813,3.0836,3.0866,3.087,3.0871,3.0885,3.0886,3.0888,3.0897,3.0906,3.0912,3.0923,3.093,3.094,3.0928,3.0905,3.0964,3.093,3.0962,3.0962,3.0977,3.0976,3.1071,3.0978,3.0978,3.0978,3.0978,0,3.088,3.0909,3.0894,3.0912,3.0944,3.0928,3.0959,3.0957,3.0959,3.0978,3.0956,3.0973,3.0955,3.0971,3.0962,3.0992,3.0995,3.0993,3.099,3.0996,3.0997,3.1003,3.0999,3.098,3.098,3.0979,3.0979,0,3.0953,3.0943,3.0975,3.0973,3.0974,3.0997,3.0996,3.1014,3.1008,3.1031,3.1036,3.1026,3.1044,3.1033,3.1051,3.1044,3.1085,3.1075,3.1085,3.1083,3.1116,3.1114,3.122,3.1234,3.113,3.1131,3.1131,0,3.0997,3.1019,3.102,3.1032,3.1035,3.1052,3.1062,3.1047,3.1058,3.1065,3.1082,3.1098,3.1111,3.1141,3.1136,3.115,3.1142,3.1178,3.1144,3.115,3.1146,3.1146,3.1149,3.1185,3.1187,3.1188,3.1188,0,3.1078,3.1073,3.1088,3.1102,3.1115,3.1124,3.1132,3.1143,3.1128,3.1141,3.116,3.117,3.1189,3.1207,3.1219,3.1219,3.1203,3.1199,3.1207,3.1215,3.1221,3.1221,3.1106,3.1197,3.1196,3.1196,3.1195,3.1195,3.114,3.1159,3.1164,3.1182,3.1187,3.1195,3.1213,3.121,3.1225,3.1241,3.1231,3.1254,3.1258,3.1273,3.1277,3.1295,3.128,3.1292,3.1295,3.1299,3.1305,3.1216,3.1296,3.1296,3.1296,3.1296,3.1295,0,3.1222,3.1225,3.1241,3.1255,3.1269,3.1252,3.126,3.1274,3.1295,3.13,3.1314,3.1337,3.1354,3.1351,3.1366,3.1382,3.1374,3.1387,3.1387,3.1388,3.1315,3.1308,3.1392,3.1392,3.1392,3.1392,3.1392,3.1392,3.1267,3.13,3.1296,3.1331,3.1332,3.1356,3.1363,3.1371,3.1376,3.1403,3.1418,3.1416,3.1419,3.1435,3.145,3.1449,3.1457,3.1472,3.1469,3.1402,3.1392,3.1383,3.1376,3.1474,3.1474,3.1539,3.154,3.1541]}]]